Location: ?????
(30.2541°N, 31.0910°E)
Time: 04:02:05
(UTC+00:00)

ASTRO E2 - Pass Details

Date: 27 September 2022
Orbit: 493 x 499 km, 31.4° (Epoch: 01 December)

Event Time Altitude Azimuth Distance (km) Brightness Sun altitude
Exits shadow 01:50:18 45° 89° (E) 684 3.6 -25.7°
Drops below altitude 10° 01:53:06 10° 81° (E) 1,696 6.4 -25.1°
Enters shadow 02:49:05 -72° 265° (W) 12,628 9.6 -13.2°
Maximum altitude 03:29:22 74° 1° (N) 522 2.7 -4.6°
